Flag for Germany Weather past 2 weeks in Weyhe, Lower Saxony, Germany

Now
45 °F

Clear.


Feels Like: 41 °F
Forecast: 50 / 60 °F
Wind: 6 mph from Northwest

Location: Bremen Airport

Current Time: Sep 23, 2014 at 3:27:09 AM

Latest Report: Sep 23, 2014 at 2:50 AM


Visibility: 10 mi

Pressure: 30.12 "Hg

Humidity: 87%

Dew point: 41 °F

Location of WeyheLocation

Historic Weather in Weyhe — Graph

°F

Weyhe temperature yesterday

Maximum temperature yesterday: 61 °F (at 5:20 PM)
Minimum temperature yesterday: 50 °F (at 8:50 AM)
Average temperature yesterday: 56 °F

Past Weeks' High & Low Weather Summary

 TemperatureHumidityPressure
High77 °F (Sep 16, 3:50 PM)100% (Sep 8, 1:50 AM)30.24 "Hg (Sep 8, 1:50 AM)
Low50 °F (Sep 9, 7:20 AM)45% (Sep 22, 2:20 PM)29.86 "Hg (Sep 18, 3:20 PM)
Average62 °F80%30.04 "Hg
* Reported Sep 8 1:20 AM — Sep 23 1:50 AM, Weyhe, Weather by CustomWeather, © 2014

Note: Actual official high and low records may vary slightly from our data, if they occured in-between our weather recording intervals... More about our weather records

Advertising

Weyhe weather history for previous 24 hours

 ConditionsComfort  
Time TempWeatherWind HumidityBarometerVisibility
1:50 AM
Sep 23
50 °FPassing clouds.5 mph82%30.12 "HgN/A
1:20 AM50 °FPassing clouds.6 mph82%30.09 "HgN/A
12:50 AM50 °FPassing clouds.6 mph82%30.09 "HgN/A
12:20 AM52 °FPassing clouds.7 mph77%30.09 "HgN/A
11:50 PM
Sep 22
54 °FPassing clouds.6 mph72%30.09 "HgN/A
11:20 PM55 °FPassing clouds.7 mph67%30.09 "HgN/A
10:50 PM54 °FPartly cloudy.9 mph77%30.09 "HgN/A
10:20 PM55 °FPartly cloudy.9 mph72%30.09 "HgN/A
9:50 PM57 °FPassing clouds.9 mph63%30.07 "HgN/A
9:20 PM57 °FClear.14 mph63%30.07 "Hg10 mi
8:50 PM57 °FClear.15 mph63%30.07 "Hg10 mi
8:20 PM57 °FPartly sunny.14 mph63%30.07 "HgN/A
7:50 PM57 °FPartly sunny.15 mph63%30.07 "HgN/A
7:20 PM57 °FPartly sunny.18 mph63%30.07 "HgN/A
6:50 PM59 °FPartly sunny.20 mph55%30.04 "HgN/A
6:20 PM59 °FPartly sunny.22 mph55%30.04 "HgN/A
5:50 PM59 °FPartly sunny.22 mph55%30.01 "HgN/A
5:20 PM61 °FScattered clouds.24 mph52%30.01 "HgN/A
4:50 PM59 °FScattered clouds.22 mph55%30.01 "HgN/A
4:20 PM59 °FPartly sunny.21 mph51%30.01 "HgN/A
3:50 PM59 °FPartly sunny.20 mph55%30.01 "HgN/A
3:20 PM59 °FPartly sunny.22 mph51%29.98 "HgN/A
2:50 PM59 °FPartly sunny.20 mph48%29.98 "HgN/A
2:20 PM59 °FPartly sunny.23 mph45%29.98 "HgN/A
1:50 PM59 °FScattered clouds.16 mph48%29.98 "HgN/A
1:20 PM59 °FPartly sunny.16 mph51%29.98 "HgN/A
12:50 PM57 °FPartly sunny.15 mph55%29.98 "HgN/A
12:20 PM59 °FScattered clouds.13 mph59%29.98 "HgN/A
11:50 AM55 °FScattered clouds.13 mph72%29.98 "HgN/A
11:20 AM55 °FPassing clouds.10 mph72%29.95 "HgN/A
10:50 AM52 °FPassing clouds.10 mph88%29.95 "HgN/A
10:20 AM50 °FSprinkles. Scattered clouds.14 mph88%29.95 "HgN/A
9:50 AM50 °FSprinkles. Partly sunny.18 mph82%29.95 "HgN/A
9:20 AM50 °FRain showers. Partly sunny.17 mph94%29.95 "Hg2 mi
8:50 AM50 °FSprinkles. Broken clouds.14 mph88%29.92 "Hg5 mi
8:20 AM52 °FSprinkles. Partly sunny.9 mph88%29.92 "Hg4 mi
7:50 AM54 °FSprinkles. Passing clouds.16 mph77%29.92 "HgN/A
7:20 AM54 °FSprinkles. Passing clouds.15 mph72%29.92 "HgN/A
6:50 AM54 °FPassing clouds.16 mph72%29.92 "HgN/A
6:20 AM54 °FClear.16 mph72%29.92 "Hg10 mi
5:50 AM54 °FPassing clouds.15 mph72%29.92 "HgN/A
5:20 AM55 °FPassing clouds.14 mph67%29.95 "HgN/A
4:50 AM55 °FPassing clouds.15 mph72%29.95 "HgN/A
4:20 AM55 °FPassing clouds.16 mph72%29.95 "HgN/A
3:50 AM55 °FPassing clouds.16 mph72%29.95 "HgN/A
3:20 AM55 °FSprinkles. Passing clouds.14 mph72%29.95 "HgN/A
Weather by CustomWeather, © 2014

See weather overviewHow to use our weather pages